OneWeb SL0137

operational
NORAD ID: 47274 Int'l Des: 2020-100 Owner: ONEWEB Country: UK Constellation: oneweb
LEOCIRCULARPOLARONEWEB_TYPE

Über OneWeb SL0137

Beschreibung wird geladen...

Live-Position

3D-Globus wird geladen...

Nächste Überflüge

Höhenverlauf

Altitude vs Time

uPlot chart will show altitude changes over time

Zweizeiliger Elementsatz

1 47274U 20100S 25350.82397445 -.00000343 00000-0 -98873-3 0 9994
2 47274 87.8929 26.9230 0001939 88.1988 271.9363 13.12490064240822
Epoch: 16. Dez. 2025 • Age: 15 hours

Aktueller Status

Höhe 1218.2 km
Geschwindigkeit 7.25 km/s
Subsatellitenpunkt 39.08°N, 48.16°W
Startdatum 18. Dez. 2020
Alter 4.9 years
Typ internet

Technische Details

Klassifizierung Payload
Masse 148.00 kg
Trockenmasse 140.00 kg
Gesamtmasse 148.00 kg
Länge 1.30 m
Durchmesser 1.00 m
Spannweite 5.00 m
Form Trapezoid+2 pan
Hersteller ONEWUS
Bus-Typ ARROW
Phasenstatus In Orbit
Besitzer/Staat ONEWEB/UK

Große Konstellationen

Loading constellations...